Regional Weather Roundup
Issued by NWS Charleston, SC

Current Version | Previous Version | Graphics & Text | Print | Product List | Glossary On
Versions: 1 2 3 4 5 6 7 8 9 10 11 12 13 14 15 16 17 18 19 20 21 22 23 24 25 26 27 28 29 30 31 32 33 34 35 36 37 38 39 40 41 42 43 44 45 46 47 48 49 50
000 ASUS42 KCHS 010512 RWRCHS REGIONAL WEATHER ROUNDUP NATIONAL WEATHER SERVICE CHARLESTON SC 100 AM EDT SAT AUG 01 2015 NOTE: "FAIR" INDICATES FEW OR NO CLOUDS BELOW 12,000 FEET WITH NO SIGNIFICANT WEATHER AND/OR OBSTRUCTIONS TO VISIBILITY. NOT ALL STATIONS ARE QUALITY CONTROLLED BY THE NATIONAL WEATHER SERVICE. USE DATA WITH CAUTION...ESPECIALLY DEWPOINT OBSERVATIONS. SCZ027-030-031-034>040-042>050-010600- ...SOUTHEAST SOUTH CAROLINA... CITY SKY/WX TMP DP RH WIND PRES REMARKS N CHARLESTON LGT RAIN 80 73 79 CALM 29.93F WATERFRONT PRK N/A 82 78 88 VRB2 29.92R HX 91 MOUNT PLEASANT FAIR 81 77 89 SW5 29.94F JOHNS ISLAND FAIR 79 77 94 CALM 29.94F PINOPOLIS NOT AVBL MONCKS CORNER FAIR 77 73 88 CALM 29.95S FOG SUMMERVILLE FAIR 75 75 100 CALM 29.95S BEAUFORT MCAS MOCLDY 77 74 90 CALM 29.93S BEAUFORT ARPT FAIR 79 77 94 CALM 29.92F HILTON HEAD IS MOCLDY 77 75 94 SW3 29.94S WALTERBORO PTCLDY 77 73 88 E3 29.95S ALLENDALE N/A 75 73 94 CALM 29.94S ...SOUTHERN MIDLANDS AND PEE DEE... CITY SKY/WX TMP DP RH WIND PRES REMARKS GEORGETOWN NOT AVBL KINGSTREE NOT AVBL ORANGEBURG CLOUDY 76 73 91 CALM 29.96R BARNWELL FAIR 77 73 88 CALM 29.95F AIKEN FAIR 75 68 78 SW6 29.99S MANNING RAIN 75 72 88 CALM 29.95S COLUMBIA PTCLDY 80 71 74 SE7 29.94S SUMTER PTCLDY 78 72 83 S2 29.93R FLORENCE PTCLDY 77 72 84 SW3 29.95R MYRTLE BEACH PTCLDY 79 72 78 CALM 29.95S N MYRTLE BEACH PTCLDY 77 74 90 NW3 29.94R $$ GAZ063-065-086>088-099>101-113>116-118-119-134>141-150-010600- ...SOUTHEAST GEORGIA... CITY SKY/WX TMP DP RH WIND PRES REMARKS SAVANNAH ARPT MOCLDY 76 74 93 CALM 29.93F HUNTER AAF CLOUDY 77 76 99 S3 29.91F FORT STEWART NOT AVBL STATESBORO PTCLDY 74 32 21 CALM 29.94S SYLVANIA PTCLDY 74 74 100 CALM 29.94F CLAXTON NOT AVBL ...CSRA...CENTRAL AND FAR SOUTHEAST GEORGIA... CITY SKY/WX TMP DP RH WIND PRES REMARKS THOMSON CLEAR 78 75 89 CALM 30.00S AUGUSTA-BUSH CLEAR 75 73 93 CALM 29.94S AUGUSTA-DANIEL MOCLDY 79 73 82 S6 29.96S SWAINSBORO FAIR N/A N/A N/A CALM 29.95F VIDALIA PTCLDY 73 72 94 CALM 29.94F EASTMAN FOG 74 74 100 CALM 29.96F VSB 1/2 HAZLEHURST FAIR 77 76 98 CALM 29.93S ALMA MOCLDY 75 73 93 S3 29.94S WAYCROSS MOCLDY 77 77 99 CALM 29.91R JESUP FOG 77 77 100 CALM 29.95R VSB 1/4 BAXLEY FAIR 77 73 88 CALM 29.94R BRUNSWICK CLOUDY 77 73 88 SW5 29.95S SAINT SIMONS CLOUDY 77 75 93 S5 29.94S $$ SCZ027-028-034-036>038-045-046-048>050-GAZ119-141-010600- ...LAKE AND SUPPLEMENTAL COASTAL OBSERVATIONS... STATION/POSITION TIME TEMP WIND PRES WAVE SWELL AIR SEA DIR/SP/G HT/PER HT/PER/DIR (UTC) (F) (DEG/KT/KT) (MB) (FT/S) (FT/S/D) UPR LAKE MARION NOT AVBL WINYAH BAY NOT AVBL LAKE MURRAY 0400 83 170/ 7/ 9 1013.2S ACE BASIN NERRS NOT AVBL FORT PULASKI 0400 79 86 250/ 3/ 4 1014.1S SAPELO ISLAND 0400 79 220/ 6 1013.0F $$ ANZ835-935-AMZ111-154-330-350-352-354-370-450-454-472-010600- ...C-MAN AND BUOY OBSERVATIONS... STATION/POSITION TIME TEMP WIND PRES WAVE SWELL AIR SEA DIR/SP/G HT/PER HT/PER/DIR (UTC) (F) (DEG/KT/KT) (MB) (FT/S) (FT/S/D) BUOY 41004 0450 83 84 230/ 14/ 14 1013.3S 5/ 8 3/ 8 BUOY 41008 0450 82 83 220/ 10/ 10 1013.9R 3/ 5 2/170/ 5 FOLLY BEACH CMAN 0400 82 220/ 8/ 10 1014.1F CAPERS NEARSHORE 0408 83 240/ 12/ 16 1014.3S FRIPP NEARSHORE 0400 83 210/ 12/ 14 1013.3F STATION/POSITION TIME TEMP WIND PRES WAVE SWELL AIR SEA DIR/SP/G HT/PER HT/PER/DIR (UTC) (F) (DEG/KT/KT) (MB) (FT/S) (FT/S/D) 5E ST. MARYS GA 0421 83 N/A 3/ 5 FRYING PAN BUOY 0450 84 84 220/ 16/ 17 1013.9F 5/ 8 3/150/ 8 BUOY 41025 0450 81 85 140/ 2/ 4 1014.3R 4/ 7 3/180/ 7 CAPE LOOKOUT NC 0400 80 150/ 4/ 4 1013.7F BUOY 41002 0450 82 81 240/ 16/ 19 1016.7F 6/ 8 BUOY 41010 0420 83 84 220/ 14/ 17 1016.3S ST AUGUSTINE FL 0500 78 82 210/ 7/ 9 1015.4F $$

USA.gov is the U.S. government's official web portal to all federal, state and local government web resources and services.